| time (UTC) | temp C | wind direction | speed KPH | gust KPH | rain 1hr cm | rain 24hr cm | rain mn cm | humidity % | barometer mb |
| 20260507095503 | 14 | 240 | 0.0 | 0.0 | 0.00 | 0.00 | 0.00 | 36 | 1024.1 |
| 20260507095004 | 14 | 240 | 0.0 | 0.0 | 0.00 | 0.00 | 0.00 | 35 | 1024.1 |
| 20260507094503 | 14 | 240 | 0.0 | 0.0 | 0.00 | 0.00 | 0.00 | 35 | 1024.3 |
| 20260507093503 | 15 | 240 | 0.0 | 0.0 | 0.00 | 0.00 | 0.00 | 35 | 1024.2 |
| 20260507093003 | 15 | 242 | 0.0 | 0.0 | 0.00 | 0.00 | 0.00 | 34 | 1024.3 |
| 20260507092003 | 16 | 245 | 0.0 | 0.0 | 0.00 | 0.00 | 0.00 | 33 | 1024.1 |
| 20260507091503 | 16 | 246 | 0.0 | 0.0 | 0.00 | 0.00 | 0.00 | 33 | 1024.2 |
| 20260507091003 | 16 | 246 | 0.0 | 0.0 | 0.00 | 0.00 | 0.00 | 33 | 1024.3 |
| 20260507090503 | 16 | 246 | 0.0 | 0.0 | 0.00 | 0.00 | 0.00 | 33 | 1024.2 |
| 20260507090005 | 16 | 246 | 0.0 | 0.0 | 0.00 | 0.00 | 0.00 | 33 | 1024.3 |
| 20260507085503 | 16 | 246 | 0.0 | 0.0 | 0.00 | 0.00 | 0.00 | 34 | 1024.3 |
| 20260507085003 | 16 | 246 | 0.0 | 0.0 | 0.00 | 0.00 | 0.00 | 33 | 1024.3 |
| 20260507084503 | 16 | 242 | 0.0 | 0.0 | 0.00 | 0.00 | 0.00 | 34 | 1024.3 |
| 20260507084004 | 16 | 238 | 0.0 | 0.0 | 0.00 | 0.00 | 0.00 | 34 | 1024.3 |
| 20260507083503 | 16 | 215 | 0.0 | 0.0 | 0.00 | 0.00 | 0.00 | 34 | 1024.3 |
| 20260507083004 | 16 | 232 | 0.0 | 0.0 | 0.00 | 0.00 | 0.00 | 34 | 1024.3 |
| 20260507082003 | 15 | 247 | 0.0 | 0.0 | 0.00 | 0.00 | 0.00 | 34 | 1024.4 |
| 20260507081503 | 16 | 248 | 0.0 | 0.0 | 0.00 | 0.00 | 0.00 | 34 | 1024.4 |
| 20260507081003 | 16 | 239 | 0.0 | 0.0 | 0.00 | 0.00 | 0.00 | 34 | 1024.4 |
| 20260507080502 | 16 | 245 | 0.0 | 0.0 | 0.00 | 0.00 | 0.00 | 34 | 1024.5 |
| 20260507080004 | 16 | 232 | 0.0 | 0.0 | 0.00 | 0.00 | 0.00 | 34 | 1024.5 |
| 20260507075503 | 16 | 239 | 0.0 | 0.0 | 0.00 | 0.00 | 0.00 | 34 | 1024.4 |
| 20260507075003 | 16 | 239 | 0.0 | 0.0 | 0.00 | 0.00 | 0.00 | 33 | 1024.5 |
| 20260507074003 | 16 | 247 | 0.0 | 0.0 | 0.00 | 0.00 | 0.00 | 33 | 1024.4 |
| 20260507073503 | 16 | 239 | 0.0 | 0.0 | 0.00 | 0.00 | 0.00 | 34 | 1024.6 |
| 20260507073003 | 16 | 233 | 0.0 | 0.0 | 0.00 | 0.00 | 0.00 | 33 | 1024.6 |
| 20260507072503 | 16 | 243 | 0.0 | 0.0 | 0.00 | 0.00 | 0.00 | 33 | 1024.5 |
| 20260507072003 | 16 | 240 | 0.0 | 0.0 | 0.00 | 0.00 | 0.00 | 33 | 1024.6 |
| 20260507071003 | 16 | 241 | 0.0 | 0.0 | 0.00 | 0.00 | 0.00 | 32 | 1024.6 |
| 20260507070503 | 17 | 240 | 0.0 | 0.0 | 0.00 | 0.00 | 0.00 | 32 | 1024.6 |
| 20260507064503 | 17 | 229 | 0.0 | 0.0 | 0.00 | 0.00 | 0.00 | 31 | 1024.5 |
| 20260507064003 | 17 | 232 | 0.0 | 0.0 | 0.00 | 0.00 | 0.00 | 31 | 1024.6 |
| 20260507063503 | 17 | 238 | 0.0 | 0.0 | 0.00 | 0.00 | 0.00 | 31 | 1024.6 |
| 20260507063004 | 17 | 240 | 0.0 | 0.0 | 0.00 | 0.00 | 0.00 | 31 | 1024.7 |
| 20260507062504 | 17 | 228 | 0.0 | 0.0 | 0.00 | 0.00 | 0.00 | 31 | 1024.4 |
| 20260507062003 | 17 | 231 | 0.0 | 0.0 | 0.00 | 0.00 | 0.00 | 32 | 1024.4 |
| 20260507061503 | 17 | 233 | 0.0 | 0.0 | 0.00 | 0.00 | 0.00 | 34 | 1024.4 |
| 20260507061003 | 17 | 234 | 0.0 | 0.0 | 0.00 | 0.00 | 0.00 | 33 | 1024.3 |
| 20260507060503 | 17 | 237 | 0.0 | 0.0 | 0.00 | 0.00 | 0.00 | 31 | 1024.3 |
| 20260507055503 | 17 | 231 | 0.0 | 0.0 | 0.00 | 0.00 | 0.00 | 31 | 1024.3 |
| 20260507055003 | 17 | 233 | 0.0 | 0.0 | 0.00 | 0.00 | 0.00 | 32 | 1024.3 |
| 20260507054504 | 17 | 236 | 0.0 | 0.0 | 0.00 | 0.00 | 0.00 | 32 | 1024.3 |
| 20260507054004 | 18 | 236 | 0.0 | 0.0 | 0.00 | 0.00 | 0.00 | 32 | 1024.3 |
| 20260507053503 | 18 | 237 | 0.0 | 0.0 | 0.00 | 0.00 | 0.00 | 33 | 1024.3 |
| 20260507052502 | 18 | 231 | 0.0 | 0.0 | 0.00 | 0.00 | 0.00 | 36 | 1024.3 |
| 20260507052003 | 18 | 232 | 0.0 | 0.0 | 0.00 | 0.00 | 0.00 | 37 | 1024.4 |
| 20260507051502 | 18 | 231 | 0.0 | 0.0 | 0.00 | 0.00 | 0.00 | 37 | 1024.4 |
| 20260507051002 | 19 | 228 | 0.0 | 0.0 | 0.00 | 0.00 | 0.00 | 38 | 1024.4 |
| 20260507050503 | 19 | 234 | 0.0 | 0.0 | 0.00 | 0.00 | 0.00 | 38 | 1024.3 |
| 20260507050003 | 19 | 229 | 0.0 | 0.0 | 0.00 | 0.00 | 0.00 | 38 | 1024.4 |
| 20260507045503 | 19 | 235 | 0.0 | 0.0 | 0.00 | 0.00 | 0.00 | 39 | 1024.3 |
| 20260507045004 | 19 | 236 | 0.0 | 0.0 | 0.00 | 0.00 | 0.00 | 38 | 1024.3 |
| 20260507044503 | 19 | 224 | 0.0 | 0.0 | 0.00 | 0.00 | 0.00 | 38 | 1024.4 |
| 20260507044004 | 19 | 227 | 0.0 | 0.0 | 0.00 | 0.00 | 0.00 | 38 | 1024.3 |
| 20260507043504 | 19 | 221 | 0.0 | 0.0 | 0.00 | 0.00 | 0.00 | 38 | 1024.4 |
| 20260507043004 | 19 | 227 | 0.0 | 0.0 | 0.00 | 0.00 | 0.00 | 38 | 1024.4 |
| 20260507042503 | 20 | 234 | 0.0 | 0.0 | 0.00 | 0.00 | 0.00 | 38 | 1024.1 |
| 20260507042004 | 20 | 232 | 0.0 | 0.0 | 0.00 | 0.00 | 0.00 | 38 | 1024.1 |
| 20260507041502 | 20 | 227 | 0.0 | 0.0 | 0.00 | 0.00 | 0.00 | 38 | 1024.1 |
| 20260507041003 | 20 | 233 | 0.0 | 0.0 | 0.00 | 0.00 | 0.00 | 38 | 1024.0 |
| 20260507035503 | 20 | 220 | 0.0 | 0.0 | 0.00 | 0.00 | 0.00 | 36 | 1024.0 |
| 20260507035004 | 20 | 220 | 0.0 | 0.0 | 0.00 | 0.00 | 0.00 | 36 | 1023.9 |
| 20260507034505 | 20 | 235 | 0.0 | 0.0 | 0.00 | 0.00 | 0.00 | 36 | 1023.9 |
| 20260507033502 | 20 | 233 | 0.0 | 0.0 | 0.00 | 0.00 | 0.00 | 36 | 1023.8 |
| 20260507033003 | 20 | 221 | 0.0 | 0.0 | 0.00 | 0.00 | 0.00 | 35 | 1023.7 |
| 20260507032517 | 19 | 219 | 0.0 | 0.0 | 0.00 | 0.00 | 0.00 | 33 | 1023.7 |
| 20260507032035 | 19 | 240 | 0.0 | 0.0 | 0.00 | 0.00 | 0.00 | 31 | 1023.6 |
| 20260507031504 | 20 | 34 | 0.0 | 0.0 | 0.00 | 0.00 | 0.00 | 30 | 1023.5 |
| 20260507031003 | 20 | 34 | 0.0 | 0.0 | 0.00 | 0.00 | 0.00 | 25 | 1023.5 |
| 20260507030503 | 21 | 34 | 0.0 | 0.0 | 0.00 | 0.00 | 0.00 | 25 | 1023.5 |
| 20260507030004 | 21 | 34 | 0.0 | 0.0 | 0.00 | 0.00 | 0.00 | 25 | 1023.4 |
| 20260507025503 | 21 | 34 | 0.0 | 0.0 | 0.00 | 0.00 | 0.00 | 24 | 1023.4 |
| 20260507025003 | 22 | 34 | 0.0 | 0.0 | 0.00 | 0.00 | 0.00 | 24 | 1023.3 |
| 20260507024503 | 22 | 34 | 0.0 | 0.0 | 0.00 | 0.00 | 0.00 | 24 | 1023.3 |
| 20260507024003 | 22 | 35 | 0.0 | 0.0 | 0.00 | 0.00 | 0.00 | 23 | 1023.2 |
| 20260507023503 | 23 | 35 | 0.0 | 0.0 | 0.00 | 0.00 | 0.00 | 23 | 1023.2 |
| 20260507023003 | 23 | 36 | 0.0 | 0.0 | 0.00 | 0.00 | 0.00 | 23 | 1023.2 |
| 20260507022503 | 23 | 32 | 0.0 | 0.0 | 0.00 | 0.00 | 0.00 | 23 | 1023.1 |
| 20260507022003 | 24 | 34 | 1.6 | 4.8 | 0.00 | 0.00 | 0.00 | 23 | 1023.1 |
| 20260507021503 | 24 | 26 | 3.2 | 9.7 | 0.00 | 0.00 | 0.00 | 22 | 1023.2 |
| 20260507021003 | 24 | 42 | 4.8 | 11.3 | 0.00 | 0.00 | 0.00 | 22 | 1023.1 |
| 20260507020503 | 25 | 28 | 4.8 | 11.3 | 0.00 | 0.00 | 0.00 | 21 | 1023.1 |
| 20260507020003 | 25 | 26 | 8.0 | 12.9 | 0.00 | 0.00 | 0.00 | 20 | 1023.2 |
| 20260507015503 | 25 | 358 | 4.8 | 9.7 | 0.00 | 0.00 | 0.00 | 20 | 1023.2 |
| 20260507015003 | 25 | 4 | 4.8 | 11.3 | 0.00 | 0.00 | 0.00 | 20 | 1023.1 |
| 20260507014503 | 25 | 39 | 4.8 | 12.9 | 0.00 | 0.00 | 0.00 | 20 | 1023.1 |
| 20260507014003 | 25 | 30 | 8.0 | 12.9 | 0.00 | 0.00 | 0.00 | 20 | 1023.1 |
| 20260507013503 | 25 | 14 | 3.2 | 4.8 | 0.00 | 0.00 | 0.00 | 21 | 1023.2 |
| 20260507013003 | 25 | 324 | 8.0 | 14.5 | 0.00 | 0.00 | 0.00 | 21 | 1023.2 |
| 20260507012503 | 25 | 320 | 8.0 | 16.1 | 0.00 | 0.00 | 0.00 | 22 | 1023.0 |
| 20260507012003 | 25 | 20 | 8.0 | 16.1 | 0.00 | 0.00 | 0.00 | 22 | 1023.0 |
| 20260507010502 | 25 | 44 | 4.8 | 11.3 | 0.00 | 0.00 | 0.00 | 23 | 1023.0 |
| 20260507010004 | 25 | 19 | 11.3 | 16.1 | 0.00 | 0.00 | 0.00 | 22 | 1022.9 |
| 20260507005503 | 26 | 45 | 6.4 | 16.1 | 0.00 | 0.00 | 0.00 | 23 | 1023.0 |
| 20260507005003 | 26 | 357 | 4.8 | 8.0 | 0.00 | 0.00 | 0.00 | 22 | 1023.1 |
| 20260507004003 | 25 | 19 | 8.0 | 19.3 | 0.00 | 0.00 | 0.00 | 22 | 1023.0 |
| 20260507003504 | 26 | 6 | 8.0 | 19.3 | 0.00 | 0.00 | 0.00 | 22 | 1022.9 |
| 20260507003004 | 25 | 17 | 9.7 | 16.1 | 0.00 | 0.00 | 0.00 | 21 | 1023.0 |
| 20260507002503 | 26 | 32 | 9.7 | 16.1 | 0.00 | 0.00 | 0.00 | 21 | 1023.0 |
| 20260507002003 | 26 | 37 | 8.0 | 22.5 | 0.00 | 0.00 | 0.00 | 21 | 1022.9 |
| 20260507001503 | 26 | 35 | 8.0 | 22.5 | 0.00 | 0.00 | 0.00 | 20 | 1022.8 |
| 20260507001003 | 25 | 46 | 4.8 | 19.3 | 0.00 | 0.00 | 0.00 | 21 | 1023.0 |
| 20260507000505 | 26 | 1 | 14.5 | 22.5 | 0.00 | 0.00 | 0.00 | 22 | 1022.9 |
| 20260507000004 | 26 | 19 | 8.0 | 20.9 | 0.00 | 0.00 | 0.00 | 21 | 1022.9 |
| 20260506234503 | 26 | 63 | 6.4 | 14.5 | 0.00 | 0.00 | 0.00 | 21 | 1022.8 |
| 20260506233503 | 26 | 83 | 4.8 | 19.3 | 0.00 | 0.00 | 0.00 | 21 | 1022.9 |
| 20260506233003 | 26 | 37 | 4.8 | 16.1 | 0.00 | 0.00 | 0.00 | 21 | 1023.0 |
| 20260506232504 | 26 | 67 | 4.8 | 22.5 | 0.00 | 0.00 | 0.00 | 22 | 1022.9 |
| 20260506231503 | 26 | 33 | 14.5 | 24.1 | 0.00 | 0.00 | 0.00 | 22 | 1022.9 |
| 20260506231003 | 26 | 33 | 9.7 | 20.9 | 0.00 | 0.00 | 0.00 | 21 | 1022.9 |
| 20260506230003 | 26 | 343 | 4.8 | 12.9 | 0.00 | 0.00 | 0.00 | 23 | 1022.9 |
| 20260506225503 | 26 | 18 | 6.4 | 12.9 | 0.00 | 0.00 | 0.00 | 23 | 1023.0 |
| 20260506225003 | 26 | 45 | 8.0 | 19.3 | 0.00 | 0.00 | 0.00 | 22 | 1023.0 |
| 20260506224503 | 26 | 24 | 9.7 | 19.3 | 0.00 | 0.00 | 0.00 | 22 | 1023.1 |
| 20260506224003 | 26 | 39 | 8.0 | 16.1 | 0.00 | 0.00 | 0.00 | 22 | 1023.0 |
| 20260506223504 | 26 | 16 | 11.3 | 19.3 | 0.00 | 0.00 | 0.00 | 23 | 1023.1 |
| 20260506223003 | 26 | 43 | 11.3 | 20.9 | 0.00 | 0.00 | 0.00 | 23 | 1023.2 |
| 20260506222002 | 26 | 22 | 9.7 | 22.5 | 0.00 | 0.00 | 0.00 | 25 | 1023.4 |
| 20260506221504 | 26 | 27 | 11.3 | 25.7 | 0.00 | 0.00 | 0.00 | 24 | 1023.4 |
| 20260506221003 | 25 | 268 | 3.2 | 14.5 | 0.00 | 0.00 | 0.00 | 25 | 1023.5 |
| 20260506220503 | 26 | 338 | 11.3 | 19.3 | 0.00 | 0.00 | 0.00 | 25 | 1023.6 |
| 20260506220003 | 26 | 67 | 8.0 | 16.1 | 0.00 | 0.00 | 0.00 | 25 | 1023.7 |
| 20260506215504 | 25 | 30 | 11.3 | 19.3 | 0.00 | 0.00 | 0.00 | 25 | 1023.8 |
| 20260506214503 | 25 | 344 | 8.0 | 16.1 | 0.00 | 0.00 | 0.00 | 25 | 1024.0 |
| 20260506214003 | 25 | 60 | 4.8 | 16.1 | 0.00 | 0.00 | 0.00 | 25 | 1024.0 |
| 20260506213503 | 25 | 35 | 8.0 | 16.1 | 0.00 | 0.00 | 0.00 | 25 | 1024.1 |
| 20260506213004 | 26 | 344 | 4.8 | 14.5 | 0.00 | 0.00 | 0.00 | 25 | 1024.1 |
| 20260506212504 | 25 | 49 | 8.0 | 61.2 | 0.00 | 0.00 | 0.00 | 25 | 1023.8 |
| 20260506212003 | 25 | 307 | 8.0 | 19.3 | 0.00 | 0.00 | 0.00 | 26 | 1023.9 |
| 20260506211503 | 25 | 21 | 6.4 | 12.9 | 0.00 | 0.00 | 0.00 | 26 | 1024.0 |
| 20260506211003 | 25 | 38 | 6.4 | 19.3 | 0.00 | 0.00 | 0.00 | 26 | 1024.1 |
| 20260506210503 | 25 | 352 | 4.8 | 19.3 | 0.00 | 0.00 | 0.00 | 26 | 1024.0 |
| 20260506210003 | 25 | 49 | 8.0 | 14.5 | 0.00 | 0.00 | 0.00 | 26 | 1024.0 |
| 20260506205503 | 25 | 103 | 4.8 | 11.3 | 0.00 | 0.00 | 0.00 | 26 | 1024.1 |
| 20260506205005 | 25 | 103 | 6.4 | 12.9 | 0.00 | 0.00 | 0.00 | 27 | 1024.2 |
| 20260506204504 | 25 | 75 | 3.2 | 11.3 | 0.00 | 0.00 | 0.00 | 27 | 1024.2 |
| 20260506203503 | 24 | 31 | 1.6 | 8.0 | 0.00 | 0.00 | 0.00 | 27 | 1024.4 |
| 20260506203003 | 24 | 60 | 4.8 | 16.1 | 0.00 | 0.00 | 0.00 | 28 | 1024.4 |
| 20260506202503 | 23 | 65 | 4.8 | 14.5 | 0.00 | 0.00 | 0.00 | 28 | 1024.2 |
| 20260506202003 | 23 | 92 | 3.2 | 19.3 | 0.00 | 0.00 | 0.00 | 28 | 1024.4 |
| 20260506201504 | 23 | 14 | 9.7 | 20.9 | 0.00 | 0.00 | 0.00 | 28 | 1024.5 |
| 20260506201004 | 23 | 9 | 11.3 | 19.3 | 0.00 | 0.00 | 0.00 | 29 | 1024.5 |
| 20260506200503 | 23 | 305 | 9.7 | 19.3 | 0.00 | 0.00 | 0.00 | 28 | 1024.6 |
| 20260506200003 | 23 | 336 | 16.1 | 22.5 | 0.00 | 0.00 | 0.00 | 28 | 1024.6 |
| 20260506195504 | 23 | 13 | 6.4 | 20.9 | 0.00 | 0.00 | 0.00 | 29 | 1024.5 |
| 20260506194503 | 23 | 14 | 16.1 | 25.7 | 0.00 | 0.00 | 0.00 | 29 | 1024.6 |
| 20260506194003 | 23 | 20 | 16.1 | 22.5 | 0.00 | 0.00 | 0.00 | 29 | 1024.4 |
| 20260506193503 | 23 | 42 | 8.0 | 19.3 | 0.00 | 0.00 | 0.00 | 29 | 1024.5 |
| 20260506193004 | 23 | 33 | 11.3 | 22.5 | 0.00 | 0.00 | 0.00 | 30 | 1024.5 |
| 20260506192003 | 23 | 34 | 8.0 | 19.3 | 0.00 | 0.00 | 0.00 | 28 | 1024.6 |
| 20260506191503 | 23 | 75 | 8.0 | 16.1 | 0.00 | 0.00 | 0.00 | 29 | 1024.6 |
| 20260506191003 | 22 | 10 | 11.3 | 19.3 | 0.00 | 0.00 | 0.00 | 28 | 1024.6 |
| 20260506190503 | 23 | 332 | 4.8 | 14.5 | 0.00 | 0.00 | 0.00 | 28 | 1024.8 |
| 20260506185502 | 23 | 32 | 12.9 | 24.1 | 0.00 | 0.00 | 0.00 | 28 | 1024.8 |
| 20260506185003 | 22 | 39 | 8.0 | 22.5 | 0.00 | 0.00 | 0.00 | 29 | 1024.8 |
| 20260506184503 | 22 | 17 | 14.5 | 24.1 | 0.00 | 0.00 | 0.00 | 28 | 1024.8 |
| 20260506184003 | 22 | 32 | 12.9 | 22.5 | 0.00 | 0.00 | 0.00 | 29 | 1024.9 |
| 20260506183003 | 22 | 42 | 11.3 | 22.5 | 0.00 | 0.00 | 0.00 | 28 | 1025.0 |
| 20260506182503 | 22 | 22 | 9.7 | 24.1 | 0.00 | 0.00 | 0.00 | 28 | 1024.8 |
| 20260506182003 | 22 | 11 | 11.3 | 24.1 | 0.00 | 0.00 | 0.00 | 28 | 1024.8 |
| 20260506181503 | 22 | 343 | 16.1 | 27.4 | 0.00 | 0.00 | 0.00 | 28 | 1024.7 |
| 20260506180503 | 22 | 19 | 16.1 | 24.1 | 0.00 | 0.00 | 0.00 | 28 | 1024.7 |
| 20260506180004 | 22 | 17 | 11.3 | 24.1 | 0.00 | 0.00 | 0.00 | 29 | 1024.7 |
| 20260506175503 | 21 | 11 | 16.1 | 25.7 | 0.00 | 0.00 | 0.00 | 28 | 1024.7 |
| 20260506175003 | 21 | 5 | 12.9 | 22.5 | 0.00 | 0.00 | 0.00 | 30 | 1024.7 |
| 20260506174503 | 21 | 8 | 16.1 | 22.5 | 0.00 | 0.00 | 0.00 | 30 | 1024.7 |
| 20260506174004 | 21 | 347 | 14.5 | 24.1 | 0.00 | 0.00 | 0.00 | 30 | 1024.7 |
| 20260506173503 | 21 | 24 | 16.1 | 24.1 | 0.00 | 0.00 | 0.00 | 30 | 1024.7 |
| 20260506173003 | 21 | 12 | 16.1 | 20.9 | 0.00 | 0.00 | 0.00 | 30 | 1024.6 |
| 20260506172503 | 21 | 4 | 16.1 | 24.1 | 0.00 | 0.00 | 0.00 | 29 | 1024.6 |
| 20260506172003 | 21 | 346 | 14.5 | 20.9 | 0.00 | 0.00 | 0.00 | 29 | 1024.6 |
| 20260506171503 | 21 | 9 | 14.5 | 20.9 | 0.00 | 0.00 | 0.00 | 29 | 1024.5 |
| 20260506171003 | 21 | 346 | 14.5 | 22.5 | 0.00 | 0.00 | 0.00 | 29 | 1024.4 |
| 20260506170503 | 21 | 357 | 14.5 | 22.5 | 0.00 | 0.00 | 0.00 | 30 | 1024.4 |
| 20260506170003 | 21 | 2 | 12.9 | 20.9 | 0.00 | 0.00 | 0.00 | 30 | 1024.4 |
| 20260506165503 | 20 | 20 | 12.9 | 19.3 | 0.00 | 0.00 | 0.00 | 32 | 1024.3 |
| 20260506165003 | 20 | 42 | 6.4 | 19.3 | 0.00 | 0.00 | 0.00 | 34 | 1024.4 |
| 20260506164504 | 20 | 49 | 8.0 | 19.3 | 0.00 | 0.00 | 0.00 | 35 | 1024.3 |
| 20260506164003 | 19 | 39 | 4.8 | 20.9 | 0.00 | 0.00 | 0.00 | 36 | 1024.3 |
| 20260506163003 | 19 | 51 | 9.7 | 19.3 | 0.00 | 0.00 | 0.00 | 37 | 1024.3 |
| 20260506162503 | 18 | 39 | 11.3 | 20.9 | 0.00 | 0.00 | 0.00 | 37 | 1024.0 |
| 20260506162003 | 18 | 42 | 11.3 | 19.3 | 0.00 | 0.00 | 0.00 | 37 | 1024.0 |
| 20260506161503 | 18 | 39 | 8.0 | 19.3 | 0.00 | 0.00 | 0.00 | 37 | 1024.0 |
| 20260506161004 | 18 | 34 | 9.7 | 20.9 | 0.00 | 0.00 | 0.00 | 38 | 1023.9 |
| 20260506160504 | 19 | 35 | 11.3 | 19.3 | 0.00 | 0.00 | 0.00 | 35 | 1023.9 |
| 20260506160004 | 19 | 32 | 9.7 | 19.3 | 0.00 | 0.00 | 0.00 | 34 | 1023.9 |
| 20260506155504 | 19 | 83 | 4.8 | 9.7 | 0.00 | 0.00 | 0.00 | 34 | 1023.9 |
| 20260506155003 | 18 | 105 | 3.2 | 4.8 | 0.00 | 0.00 | 0.00 | 34 | 1023.9 |
| 20260506154504 | 18 | 105 | 1.6 | 4.8 | 0.00 | 0.00 | 0.00 | 35 | 1024.1 |
| 20260506154003 | 18 | 133 | 0.0 | 3.2 | 0.00 | 0.00 | 0.00 | 35 | 1024.0 |
| 20260506153504 | 18 | 133 | 3.2 | 4.8 | 0.00 | 0.00 | 0.00 | 36 | 1024.0 |
| 20260506153004 | 17 | 135 | 4.8 | 8.0 | 0.00 | 0.00 | 0.00 | 36 | 1024.1 |
| 20260506152503 | 17 | 112 | 1.6 | 8.0 | 0.00 | 0.00 | 0.00 | 37 | 1024.1 |
| 20260506152003 | 17 | 28 | 1.6 | 4.8 | 0.00 | 0.00 | 0.00 | 38 | 1024.0 |
| 20260506151004 | 16 | 24 | 3.2 | 4.8 | 0.00 | 0.00 | 0.00 | 39 | 1024.0 |
| 20260506150504 | 16 | 173 | 3.2 | 11.3 | 0.00 | 0.00 | 0.00 | 39 | 1024.1 |
| 20260506150005 | 16 | 150 | 6.4 | 9.7 | 0.00 | 0.00 | 0.00 | 41 | 1024.2 |
| 20260506145503 | 16 | 150 | 6.4 | 9.7 | 0.00 | 0.00 | 0.00 | 41 | 1024.1 |
| 20260506145003 | 15 | 167 | 4.8 | 4.8 | 0.00 | 0.00 | 0.00 | 41 | 1024.2 |
| 20260506144503 | 15 | 205 | 0.0 | 3.2 | 0.00 | 0.00 | 0.00 | 42 | 1024.2 |
| 20260506144005 | 15 | 205 | 1.6 | 3.2 | 0.00 | 0.00 | 0.00 | 43 | 1024.2 |
| 20260506143503 | 15 | 205 | 0.0 | 3.2 | 0.00 | 0.00 | 0.00 | 43 | 1024.2 |
| 20260506143004 | 14 | 205 | 0.0 | 3.2 | 0.00 | 0.00 | 0.00 | 44 | 1024.2 |
| 20260506142504 | 14 | 205 | 0.0 | 1.6 | 0.00 | 0.00 | 0.00 | 45 | 1023.9 |
| 20260506142003 | 13 | 205 | 0.0 | 1.6 | 0.00 | 0.00 | 0.00 | 45 | 1023.9 |
| 20260506141504 | 13 | 205 | 0.0 | 4.8 | 0.00 | 0.00 | 0.00 | 45 | 1023.7 |
| 20260506140504 | 12 | 221 | 0.0 | 3.2 | 0.00 | 0.00 | 0.00 | 47 | 1023.7 |
| 20260506140003 | 12 | 221 | 0.0 | 0.0 | 0.00 | 0.00 | 0.00 | 47 | 1023.5 |
| 20260506135003 | 11 | 221 | 0.0 | 0.0 | 0.00 | 0.00 | 0.00 | 49 | 1023.5 |
| 20260506134004 | 10 | 221 | 0.0 | 0.0 | 0.00 | 0.00 | 0.00 | 51 | 1023.4 |
| 20260506133503 | 9 | 221 | 0.0 | 0.0 | 0.00 | 0.00 | 0.00 | 52 | 1023.3 |
| 20260506133004 | 9 | 221 | 0.0 | 1.6 | 0.00 | 0.00 | 0.00 | 53 | 1023.2 |
| 20260506132504 | 8 | 225 | 0.0 | 1.6 | 0.00 | 0.00 | 0.00 | 55 | 1023.2 |
| 20260506132003 | 8 | 225 | 0.0 | 0.0 | 0.00 | 0.00 | 0.00 | 55 | 1023.1 |
| 20260506131503 | 8 | 225 | 0.0 | 0.0 | 0.00 | 0.00 | 0.00 | 55 | 1023.0 |
| 20260506130503 | 8 | 225 | 1.6 | 4.8 | 0.00 | 0.00 | 0.00 | 55 | 1022.9 |
| 20260506130003 | 7 | 226 | 1.6 | 4.8 | 0.00 | 0.00 | 0.00 | 56 | 1022.9 |
| 20260506125003 | 7 | 225 | 0.0 | 0.0 | 0.00 | 0.00 | 0.00 | 56 | 1022.8 |
| 20260506124503 | 8 | 225 | 0.0 | 1.6 | 0.00 | 0.00 | 0.00 | 56 | 1022.7 |
| 20260506123503 | 8 | 225 | 0.0 | 0.0 | 0.00 | 0.00 | 0.00 | 55 | 1022.6 |
| 20260506123004 | 8 | 225 | 0.0 | 1.6 | 0.00 | 0.00 | 0.00 | 55 | 1022.6 |
| 20260506122504 | 8 | 225 | 1.6 | 3.2 | 0.00 | 0.00 | 0.00 | 56 | 1022.7 |
| 20260506122003 | 8 | 223 | 0.0 | 1.6 | 0.00 | 0.00 | 0.00 | 57 | 1022.7 |
| 20260506121503 | 8 | 222 | 1.6 | 3.2 | 0.00 | 0.00 | 0.00 | 57 | 1022.7 |
| 20260506121004 | 8 | 220 | 1.6 | 4.8 | 0.00 | 0.00 | 0.00 | 58 | 1022.6 |
| 20260506120504 | 7 | 237 | 1.6 | 4.8 | 0.00 | 0.00 | 0.00 | 58 | 1022.6 |
| 20260506115503 | 7 | 235 | 0.0 | 3.2 | 0.00 | 0.00 | 0.00 | 57 | 1022.6 |
| 20260506114003 | 7 | 235 | 1.6 | 4.8 | 0.00 | 0.00 | 0.00 | 58 | 1022.4 |
| 20260506113503 | 7 | 243 | 3.2 | 4.8 | 0.00 | 0.00 | 0.00 | 59 | 1022.4 |
| 20260506113003 | 7 | 242 | 1.6 | 4.8 | 0.00 | 0.00 | 0.00 | 61 | 1022.4 |
| 20260506112503 | 6 | 240 | 0.0 | 0.0 | 0.00 | 0.00 | 0.00 | 62 | 1022.3 |
| 20260506112003 | 6 | 240 | 0.0 | 0.0 | 0.00 | 0.00 | 0.00 | 61 | 1022.4 |
| 20260506111003 | 7 | 240 | 0.0 | 0.0 | 0.00 | 0.00 | 0.00 | 60 | 1022.3 |
| 20260506110503 | 7 | 240 | 0.0 | 0.0 | 0.00 | 0.00 | 0.00 | 60 | 1022.3 |
| 20260506110003 | 7 | 240 | 0.0 | 0.0 | 0.00 | 0.00 | 0.00 | 60 | 1022.3 |
| 20260506105504 | 7 | 240 | 0.0 | 0.0 | 0.00 | 0.00 | 0.00 | 61 | 1022.2 |
| 20260506105004 | 7 | 240 | 0.0 | 0.0 | 0.00 | 0.00 | 0.00 | 61 | 1022.1 |
| 20260506104504 | 7 | 240 | 0.0 | 0.0 | 0.00 | 0.00 | 0.00 | 61 | 1022.1 |
| 20260506104003 | 7 | 240 | 0.0 | 0.0 | 0.00 | 0.00 | 0.00 | 59 | 1022.1 |
| 20260506103504 | 7 | 240 | 0.0 | 0.0 | 0.00 | 0.00 | 0.00 | 58 | 1022.1 |
| 20260506103003 | 7 | 240 | 0.0 | 0.0 | 0.00 | 0.00 | 0.00 | 59 | 1022.0 |
| 20260506102003 | 8 | 240 | 0.0 | 0.0 | 0.00 | 0.00 | 0.00 | 56 | 1022.0 |
| 20260506101503 | 8 | 240 | 0.0 | 0.0 | 0.00 | 0.00 | 0.00 | 55 | 1021.9 |
| 20260506101004 | 8 | 240 | 0.0 | 0.0 | 0.00 | 0.00 | 0.00 | 55 | 1022.0 |